Change the Weather History Date:

Saturday, December 29, 2012

  Actual Average Record
Temperature  
Mean Temperature 52 °F 51 °F  
Max Temperature 65 °F 63 °F 80 °F (1984)
Min Temperature 39 °F 39 °F 12 °F (1894)
Degree Days  
Heating Degree Days 13    
Month to date heating degree days 229  
Since 1 July heating degree days 487  
Cooling Degree Days 0    
Month to date cooling degree days 18  
Year to date cooling degree days 2976  
Moisture  
Dew Point 45 °F    
Average Humidity 74    
Maximum Humidity 97    
Minimum Humidity 51    
Precipitation  
Precipitation 0.52 in 0.12 in 1.50 in (1893)
Month to date precipitation 3.27 3.65  
Year to date precipitation 59.31 58.98  
Sea Level Pressure  
Sea Level Pressure 29.98 in    
Wind  
Wind Speed 11 mph (NW)    
Max Wind Speed 22 mph    
Max Gust Speed 29 mph    
Visibility 9 miles    
Events Rain    
T = Trace of Precipitation, MM = Missing Value Source: NWS Daily Summary

Daily Weather History Graph

Daily Weather History Graph

Search for Another Location

Airport or City:

Trip Planner

Search our weather history database for the weather conditions in past years. The results will help you decide how hot, cold, wet, or windy it might be!

Date:

Astronomy

Dec. 29, 2012 Rise Set
Actual Time 7:33 AM EST 5:46 PM EST
Civil Twilight 7:07 AM EST 6:12 PM EST
Nautical Twilight 6:37 AM EST 6:42 PM EST
Astronomical Twilight 6:07 AM EST 7:11 PM EST
Moon 7:11 PM EST (12/29) 8:12 AM EST (12/29)
Length of Visible Light 11h 05m
Length of Day
10h 12m
Full, 98% of the Moon is Illuminated
Dec 29
Full
Jan 4
Last Quarter
Jan 11
New
Jan 18
First Quarter
Jan 26
Full

Hourly Weather History & Observations

Time (EST) Temp. Windchill Dew Point Humidity Pressure Visibility Wind Dir Wind Speed Gust Speed Precip Events Conditions
12:53 AM 57.9 °F - 51.1 °F 78% 29.79 in 10.0 mi SSE 9.2 mph - 0.01 in Rain Light Rain
1:16 AM 57.2 °F - 53.6 °F 88% 29.79 in 2.0 mi SSE 4.6 mph - 0.14 in Rain Heavy Rain
1:28 AM 57.2 °F - 55.4 °F 94% 29.78 in 5.0 mi SE 8.1 mph - 0.15 in Rain Light Rain
1:53 AM 57.9 °F - 55.0 °F 90% 29.77 in 4.0 mi SSE 6.9 mph - 0.18 in Rain Heavy Rain
2:29 AM 59.0 °F - 57.2 °F 94% 29.75 in 9.0 mi SSE 5.8 mph - 0.11 in Rain Light Rain
2:53 AM 61.0 °F - 59.0 °F 93% 29.77 in 5.0 mi Calm Calm - 0.16 in Rain Rain
3:45 AM 62.6 °F - 60.8 °F 94% 29.77 in 2.0 mi West 5.8 mph - 0.12 in Rain Heavy Rain
3:53 AM 64.9 °F - 62.1 °F 90% 29.78 in 4.0 mi NW 12.7 mph 19.6 mph 0.16 in Rain Light Rain
4:29 AM 62.6 °F - 60.8 °F 94% 29.78 in 10.0 mi West 4.6 mph - 0.01 in   Overcast
4:53 AM 63.0 °F - 60.1 °F 90% 29.78 in 10.0 mi WNW 5.8 mph - 0.01 in   Overcast
5:23 AM 62.6 °F - 60.8 °F 94% 29.80 in 10.0 mi WNW 13.8 mph - N/A   Overcast
5:53 AM 62.1 °F - 57.9 °F 86% 29.83 in 10.0 mi NW 10.4 mph 20.7 mph N/A   Overcast
6:53 AM 60.1 °F - 55.0 °F 83% 29.89 in 10.0 mi NW 16.1 mph 21.9 mph N/A   Overcast
7:36 AM 59.0 °F - 53.6 °F 82% 29.92 in 10.0 mi NW 10.4 mph 18.4 mph N/A   Overcast
7:53 AM 57.9 °F - 52.0 °F 81% 29.94 in 10.0 mi WNW 11.5 mph 21.9 mph N/A   Overcast
8:53 AM 57.0 °F - 50.0 °F 77% 29.98 in 10.0 mi NW 9.2 mph - N/A   Overcast
9:53 AM 57.0 °F - 45.0 °F 64% 30.00 in 10.0 mi WNW 17.3 mph 24.2 mph N/A   Mostly Cloudy
10:53 AM 57.0 °F - 43.0 °F 59% 30.04 in 10.0 mi NNW 16.1 mph - N/A   Mostly Cloudy
11:18 AM 57.2 °F - 42.8 °F 59% 30.03 in 10.0 mi NNW 11.5 mph - N/A   Mostly Cloudy
11:31 AM 57.2 °F - 42.8 °F 59% 30.04 in 10.0 mi NNW 12.7 mph - N/A   Mostly Cloudy
11:53 AM 57.0 °F - 43.0 °F 59% 30.03 in 10.0 mi NW 10.4 mph - N/A   Mostly Cloudy
12:53 PM 57.0 °F - 39.9 °F 53% 30.01 in 10.0 mi NNW 16.1 mph 23.0 mph N/A   Mostly Cloudy
1:23 PM 55.4 °F - 39.2 °F 54% 30.02 in 10.0 mi NNW 13.8 mph 20.7 mph N/A   Scattered Clouds
1:53 PM 57.0 °F - 39.0 °F 51% 30.02 in 10.0 mi WNW 12.7 mph 20.7 mph N/A   Scattered Clouds
2:53 PM 55.0 °F - 37.9 °F 53% 30.03 in 10.0 mi NW 13.8 mph - N/A   Partly Cloudy
3:53 PM 55.0 °F - 37.9 °F 53% 30.06 in 10.0 mi NNW 15.0 mph - N/A   Partly Cloudy
4:37 PM 50.0 °F - 37.4 °F 62% 30.09 in 10.0 mi WNW 16.1 mph - N/A   Mostly Cloudy
4:53 PM 48.9 °F - 37.0 °F 64% 30.10 in 10.0 mi WNW 13.8 mph - N/A   Overcast
5:14 PM 46.4 °F 40.4 °F 35.6 °F 66% 30.11 in 10.0 mi NW 13.8 mph 20.7 mph N/A   Scattered Clouds
5:45 PM 46.4 °F 41.1 °F 33.8 °F 62% 30.13 in 10.0 mi NNW 11.5 mph - N/A   Mostly Cloudy
5:53 PM 46.0 °F 41.4 °F 35.1 °F 66% 30.13 in 10.0 mi NW 9.2 mph - N/A   Mostly Cloudy
6:41 PM 44.6 °F 39.7 °F 33.8 °F 66% 30.15 in 10.0 mi NW 9.2 mph - N/A   Scattered Clouds
6:53 PM 45.0 °F 41.2 °F 34.0 °F 65% 30.16 in 10.0 mi NW 6.9 mph - N/A   Partly Cloudy
7:53 PM 45.0 °F 38.9 °F 30.9 °F 58% 30.18 in 10.0 mi NNW 12.7 mph - N/A   Scattered Clouds
8:53 PM 44.1 °F 38.6 °F 30.0 °F 58% 30.22 in 10.0 mi NW 10.4 mph - N/A   Mostly Cloudy
9:53 PM 42.1 °F 34.9 °F 28.0 °F 58% 30.24 in 10.0 mi NNW 13.8 mph 21.9 mph N/A   Partly Cloudy
10:53 PM 41.0 °F 37.1 °F 27.0 °F 57% 30.27 in 10.0 mi NW 5.8 mph - N/A   Partly Cloudy
11:53 PM 39.9 °F 33.9 °F 27.0 °F 60% 30.28 in 10.0 mi NW 9.2 mph - N/A   Clear